EZY8512 EGKK-LFMN

Flight info

Callsign EZY8512
Flight time 1h 47m
Altitude 23000
Route SFD Y47 BENBO L612 HAWKE/N0419F330 UL612 VEULE DCT KOTAP DCT KETEX DCT KOTIS DCT KUKOR DCT UTUVA DCT LERGA DCT LIQID DCT LATAM DCT TUNUR DCT NISAR
Aircraft A20N/M-SDE2E3FGHIRWXY/LB1

Departure

Time 2026-05-05 02:49
Airport London Gatwick Airport (EGKK)

Arrival

Time 2026-05-05 04:36
Airport Nice-Côte d'Azur Airport (LFMN)
Time Latitude Longitude Altitude Speed Heading
2026-05-05 02:43 51.14990 -0.19695 205 ft 0 kts 253°
2026-05-05 02:44 51.14987 -0.19719 216 ft 7 kts 258°
2026-05-05 02:44 51.14971 -0.19845 214 ft 16 kts 259°
2026-05-05 02:44 51.14943 -0.20061 213 ft 23 kts 258°
2026-05-05 02:44 51.14911 -0.20291 212 ft 18 kts 257°
2026-05-05 02:45 51.14890 -0.20449 203 ft 11 kts 258°
2026-05-05 02:45 51.14875 -0.20550 207 ft 11 kts 257°
2026-05-05 02:45 51.14853 -0.20711 208 ft 17 kts 258°
2026-05-05 02:45 51.14837 -0.20832 209 ft 5 kts 258°
2026-05-05 02:46 51.14832 -0.20866 206 ft 1 kts 257°
2026-05-05 02:46 51.14829 -0.20885 206 ft 6 kts 257°
2026-05-05 02:46 51.14815 -0.20992 211 ft 14 kts 257°
2026-05-05 02:46 51.14781 -0.21171 208 ft 20 kts 250°
2026-05-05 02:47 51.14747 -0.21371 212 ft 15 kts 236°
2026-05-05 02:47 51.14690 -0.21382 212 ft 10 kts 159°
2026-05-05 02:47 51.14651 -0.21322 204 ft 1 kts 76°
2026-05-05 02:47 51.14668 -0.21287 215 ft 7 kts 53°
2026-05-05 02:48 51.14696 -0.21184 205 ft 13 kts 78°
2026-05-05 02:48 51.14721 -0.21008 210 ft 19 kts 76°
2026-05-05 02:48 51.14799 -0.20458 213 ft 97 kts 76°
2026-05-05 02:48 51.15015 -0.18932 215 ft 185 kts 78°
2026-05-05 02:49 51.15307 -0.16656 564 ft 230 kts 78°
2026-05-05 02:49 51.15635 -0.13928 1168 ft 271 kts 78°
2026-05-05 02:49 51.15773 -0.10921 2208 ft 286 kts 96°
2026-05-05 02:49 51.15075 -0.07957 3724 ft 300 kts 119°
2026-05-05 02:50 51.13744 -0.05276 5098 ft 317 kts 135°
2026-05-05 02:50 51.11911 -0.03286 6823 ft 312 kts 158°
2026-05-05 02:50 51.09913 -0.02578 8756 ft 295 kts 174°
2026-05-05 02:50 51.08227 -0.02204 10337 ft 283 kts 172°
2026-05-05 02:51 51.06393 -0.01707 11563 ft 289 kts 169°
2026-05-05 02:51 51.04412 -0.01024 12812 ft 295 kts 166°
2026-05-05 02:51 51.02454 -0.00213 14023 ft 300 kts 164°
2026-05-05 02:51 51.00441 0.00703 15184 ft 303 kts 163°
2026-05-05 02:52 50.98415 0.01661 16108 ft 310 kts 163°
2026-05-05 02:52 50.96344 0.02649 16614 ft 313 kts 163°
2026-05-05 02:52 50.94289 0.03627 16849 ft 315 kts 163°
2026-05-05 02:52 50.92195 0.04621 16994 ft 315 kts 163°
2026-05-05 02:53 50.90080 0.05620 16999 ft 315 kts 163°
2026-05-05 02:53 50.87988 0.06605 17000 ft 315 kts 163°
2026-05-05 02:53 50.86019 0.07530 16992 ft 315 kts 163°
2026-05-05 02:53 50.84021 0.08467 16995 ft 315 kts 163°
2026-05-05 02:54 50.81842 0.09487 16997 ft 315 kts 163°
2026-05-05 02:54 50.79760 0.10460 16995 ft 315 kts 163°
2026-05-05 02:54 50.78353 0.11116 16995 ft 314 kts 164°
2026-05-05 02:54 50.75482 0.11731 17001 ft 315 kts 181°
2026-05-05 02:55 50.73328 0.11247 16993 ft 316 kts 193°
2026-05-05 02:55 50.71859 0.10663 16990 ft 334 kts 193°
2026-05-05 02:55 50.68658 0.09473 16996 ft 366 kts 192°
2026-05-05 02:55 50.66193 0.08585 16993 ft 365 kts 192°
2026-05-05 02:56 50.63713 0.07695 16983 ft 366 kts 192°
2026-05-05 02:56 50.62058 0.07100 16992 ft 366 kts 192°
2026-05-05 02:56 50.59616 0.06222 16995 ft 366 kts 192°
2026-05-05 02:56 50.57115 0.05323 16987 ft 366 kts 192°
2026-05-05 02:57 50.54622 0.04427 16992 ft 367 kts 192°
2026-05-05 02:57 50.51291 0.03232 17689 ft 374 kts 192°
2026-05-05 02:57 50.48759 0.02324 18808 ft 374 kts 192°
2026-05-05 02:57 50.47066 0.01911 19475 ft 374 kts 182°
2026-05-05 02:58 50.44452 0.02316 20475 ft 375 kts 164°
2026-05-05 02:58 50.42068 0.03919 21379 ft 378 kts 148°
2026-05-05 02:58 50.39869 0.06234 22279 ft 383 kts 145°
2026-05-05 02:58 50.37861 0.08419 23085 ft 387 kts 145°
2026-05-05 02:59 50.35609 0.10832 23906 ft 392 kts 146°
2026-05-05 02:59 50.33340 0.13217 24670 ft 395 kts 147°
2026-05-05 02:59 50.31076 0.15566 25407 ft 398 kts 147°
2026-05-05 02:59 50.28749 0.17966 26106 ft 402 kts 147°
2026-05-05 03:00 50.26406 0.20376 26778 ft 406 kts 148°
2026-05-05 03:00 50.24166 0.22677 27455 ft 409 kts 148°
2026-05-05 03:00 50.22595 0.24289 27895 ft 411 kts 148°
2026-05-05 03:00 50.20195 0.26748 28537 ft 414 kts 148°
2026-05-05 03:01 50.17779 0.29226 29156 ft 418 kts 149°
2026-05-05 03:01 50.15351 0.31725 29711 ft 421 kts 149°
2026-05-05 03:01 50.12901 0.34247 29935 ft 423 kts 149°
2026-05-05 03:02 50.07989 0.39286 29971 ft 422 kts 149°
2026-05-05 03:02 50.03077 0.44309 29973 ft 422 kts 149°
2026-05-05 03:03 49.98212 0.49273 29972 ft 422 kts 149°
2026-05-05 03:03 49.93306 0.54266 29961 ft 422 kts 149°
2026-05-05 03:04 49.88431 0.59214 29955 ft 421 kts 149°
2026-05-05 03:04 49.83532 0.64239 29964 ft 422 kts 148°
2026-05-05 03:05 49.78780 0.69560 29945 ft 422 kts 147°
2026-05-05 03:05 49.74021 0.74891 29958 ft 422 kts 147°
2026-05-05 03:06 49.69244 0.80174 29954 ft 422 kts 147°
2026-05-05 03:06 49.64459 0.85434 29951 ft 422 kts 147°
2026-05-05 03:07 49.59681 0.90675 29947 ft 422 kts 147°
2026-05-05 03:07 49.54927 0.95880 29944 ft 422 kts 147°
2026-05-05 03:08 49.50140 1.01108 29946 ft 421 kts 147°
2026-05-05 03:08 49.45381 1.06289 29946 ft 422 kts 147°
2026-05-05 03:09 49.40583 1.11503 29945 ft 421 kts 147°
2026-05-05 03:09 49.35830 1.16656 29949 ft 421 kts 147°
2026-05-05 03:10 49.31040 1.21837 29943 ft 420 kts 147°
2026-05-05 03:10 49.26255 1.27000 29942 ft 421 kts 147°
2026-05-05 03:11 49.21480 1.32140 29936 ft 420 kts 147°
2026-05-05 03:11 49.16723 1.37248 29917 ft 420 kts 147°
2026-05-05 03:12 49.11935 1.42377 29917 ft 421 kts 147°
2026-05-05 03:12 49.07331 1.47297 29911 ft 420 kts 148°
2026-05-05 03:13 49.02533 1.52413 29911 ft 420 kts 148°
2026-05-05 03:13 48.97745 1.57506 29904 ft 419 kts 148°
2026-05-05 03:14 48.92976 1.62567 29907 ft 418 kts 148°
2026-05-05 03:14 48.88232 1.67589 29898 ft 417 kts 148°
2026-05-05 03:15 48.83478 1.72609 29894 ft 416 kts 148°
2026-05-05 03:15 48.78742 1.77598 29894 ft 415 kts 148°
2026-05-05 03:16 48.73992 1.82591 29893 ft 414 kts 148°
2026-05-05 03:16 48.71645 1.85055 29568 ft 409 kts 148°
2026-05-05 03:16 48.69308 1.87503 28815 ft 407 kts 148°
2026-05-05 03:16 48.66984 1.89935 27985 ft 405 kts 148°
2026-05-05 03:17 48.64678 1.92343 27105 ft 403 kts 148°
2026-05-05 03:17 48.62378 1.94743 26256 ft 400 kts 147°
2026-05-05 03:17 48.60080 1.97136 25420 ft 399 kts 147°
2026-05-05 03:17 48.57835 1.99471 24635 ft 397 kts 147°
2026-05-05 03:18 48.55575 2.01819 23831 ft 396 kts 146°
2026-05-05 03:18 48.53317 2.04165 23241 ft 391 kts 146°
2026-05-05 03:18 48.51066 2.06501 23005 ft 393 kts 146°
2026-05-05 03:18 48.48822 2.08829 22939 ft 393 kts 146°
2026-05-05 03:19 48.44331 2.13481 22941 ft 393 kts 146°
2026-05-05 03:19 48.42086 2.15804 22930 ft 393 kts 146°
2026-05-05 03:19 48.39839 2.18126 22958 ft 393 kts 146°
2026-05-05 03:20 48.37576 2.20462 22952 ft 393 kts 146°
2026-05-05 03:20 48.35328 2.22781 22930 ft 393 kts 146°
2026-05-05 03:20 48.33083 2.25095 22956 ft 392 kts 146°
2026-05-05 03:20 48.30817 2.27410 22937 ft 393 kts 148°
2026-05-05 03:21 48.28434 2.29402 22931 ft 392 kts 155°
2026-05-05 03:21 48.25915 2.30934 22949 ft 391 kts 162°
2026-05-05 03:21 48.23303 2.32026 22945 ft 391 kts 166°
2026-05-05 03:21 48.20695 2.33034 22929 ft 391 kts 165°
2026-05-05 03:22 48.18065 2.34073 22941 ft 391 kts 165°
2026-05-05 03:22 48.15438 2.35119 22944 ft 390 kts 165°
2026-05-05 03:22 48.12813 2.36198 22931 ft 390 kts 162°
2026-05-05 03:22 48.10247 2.37486 22949 ft 390 kts 161°
2026-05-05 03:23 48.07718 2.38756 22942 ft 390 kts 161°
2026-05-05 03:23 48.05115 2.40056 22930 ft 390 kts 161°
2026-05-05 03:23 48.02574 2.41321 22950 ft 390 kts 161°
2026-05-05 03:23 47.99971 2.42614 22947 ft 390 kts 161°
2026-05-05 03:24 47.97397 2.43891 22931 ft 389 kts 161°
2026-05-05 03:24 47.95279 2.44940 22933 ft 389 kts 161°
2026-05-05 03:24 47.92707 2.46215 22949 ft 389 kts 161°
2026-05-05 03:24 47.90140 2.47487 22932 ft 389 kts 161°
2026-05-05 03:25 47.87565 2.48761 22930 ft 388 kts 161°
2026-05-05 03:25 47.85019 2.50019 22953 ft 388 kts 161°
2026-05-05 03:25 47.82444 2.51290 22933 ft 388 kts 161°
2026-05-05 03:25 47.79886 2.52550 22929 ft 388 kts 161°
2026-05-05 03:26 47.77366 2.53790 22941 ft 388 kts 161°
2026-05-05 03:26 47.74802 2.55051 22929 ft 388 kts 162°
2026-05-05 03:26 47.72226 2.56316 22923 ft 387 kts 161°
2026-05-05 03:26 47.69684 2.57563 22942 ft 387 kts 162°
2026-05-05 03:27 47.67122 2.58819 22920 ft 387 kts 161°
2026-05-05 03:27 47.64548 2.60079 22918 ft 387 kts 162°
2026-05-05 03:27 47.61995 2.61328 22933 ft 386 kts 162°
2026-05-05 03:27 47.59446 2.62574 22920 ft 387 kts 162°
2026-05-05 03:28 47.57411 2.63567 22917 ft 387 kts 162°
2026-05-05 03:28 47.54844 2.64820 22916 ft 387 kts 162°
2026-05-05 03:28 47.52361 2.66031 22930 ft 387 kts 162°
2026-05-05 03:28 47.49731 2.67312 22933 ft 387 kts 162°
2026-05-05 03:29 47.47167 2.68559 22917 ft 387 kts 162°
2026-05-05 03:29 47.44620 2.69797 22931 ft 387 kts 162°
2026-05-05 03:29 47.42097 2.71021 22934 ft 387 kts 162°
2026-05-05 03:29 47.39514 2.72273 22936 ft 386 kts 162°
2026-05-05 03:30 47.36994 2.73494 22928 ft 386 kts 162°
2026-05-05 03:30 47.34432 2.74733 22914 ft 387 kts 162°
2026-05-05 03:30 47.31891 2.75961 22930 ft 386 kts 162°
2026-05-05 03:30 47.29324 2.77200 22925 ft 386 kts 162°
2026-05-05 03:31 47.26774 2.78430 22922 ft 386 kts 162°
2026-05-05 03:31 47.24218 2.79661 22918 ft 386 kts 162°
2026-05-05 03:31 47.21659 2.80894 22927 ft 386 kts 162°
2026-05-05 03:31 47.19137 2.82105 22922 ft 386 kts 162°
2026-05-05 03:32 47.16581 2.83332 22917 ft 386 kts 162°
2026-05-05 03:32 47.13996 2.84573 22918 ft 387 kts 162°
2026-05-05 03:32 47.11502 2.85768 22923 ft 387 kts 162°
2026-05-05 03:32 47.08986 2.86972 22918 ft 387 kts 162°
2026-05-05 03:33 47.06424 2.88197 22923 ft 387 kts 162°
2026-05-05 03:33 47.03862 2.89421 22923 ft 388 kts 162°
2026-05-05 03:33 47.01320 2.90635 22916 ft 388 kts 162°
2026-05-05 03:33 46.98740 2.91865 22916 ft 388 kts 162°
2026-05-05 03:34 46.96157 2.93095 22919 ft 389 kts 162°
2026-05-05 03:34 46.93589 2.94317 22923 ft 389 kts 162°
2026-05-05 03:34 46.91047 2.95526 22922 ft 389 kts 162°
2026-05-05 03:34 46.88440 2.96764 22920 ft 389 kts 162°
2026-05-05 03:35 46.85864 2.97986 22924 ft 389 kts 162°
2026-05-05 03:35 46.83327 2.99188 22918 ft 389 kts 162°
2026-05-05 03:35 46.80753 3.00407 22925 ft 389 kts 162°
2026-05-05 03:35 46.78175 3.01626 22909 ft 389 kts 162°
2026-05-05 03:36 46.75605 3.02841 22929 ft 389 kts 162°
2026-05-05 03:36 46.73035 3.04054 22922 ft 389 kts 162°
2026-05-05 03:36 46.70452 3.05272 22921 ft 388 kts 162°
2026-05-05 03:36 46.67890 3.06478 22917 ft 388 kts 162°
2026-05-05 03:37 46.65331 3.07683 22919 ft 388 kts 162°
2026-05-05 03:37 46.62787 3.08879 22920 ft 387 kts 162°
2026-05-05 03:37 46.60231 3.10079 22928 ft 386 kts 162°
2026-05-05 03:37 46.57670 3.11281 22921 ft 386 kts 162°
2026-05-05 03:38 46.55111 3.12480 22927 ft 386 kts 162°
2026-05-05 03:38 46.52575 3.13691 22929 ft 385 kts 161°
2026-05-05 03:38 46.50062 3.15031 22923 ft 385 kts 160°
2026-05-05 03:38 46.47554 3.16422 22925 ft 385 kts 160°
2026-05-05 03:39 46.45083 3.17790 22932 ft 385 kts 160°
2026-05-05 03:39 46.42575 3.19164 22929 ft 385 kts 160°
2026-05-05 03:39 46.40036 3.20540 22932 ft 384 kts 160°
2026-05-05 03:39 46.37577 3.21863 22931 ft 384 kts 160°
2026-05-05 03:40 46.35066 3.23212 22931 ft 384 kts 160°
2026-05-05 03:40 46.32561 3.24554 22936 ft 384 kts 160°
2026-05-05 03:40 46.30066 3.25890 22930 ft 384 kts 160°
2026-05-05 03:40 46.27542 3.27241 22933 ft 384 kts 160°
2026-05-05 03:41 46.25074 3.28560 22940 ft 383 kts 160°
2026-05-05 03:41 46.22575 3.29894 22934 ft 383 kts 160°
2026-05-05 03:41 46.20073 3.31230 22936 ft 383 kts 160°
2026-05-05 03:41 46.17576 3.32561 22934 ft 383 kts 161°
2026-05-05 03:42 46.15084 3.33888 22935 ft 383 kts 161°
2026-05-05 03:42 46.12585 3.35217 22930 ft 382 kts 161°
2026-05-05 03:42 46.10090 3.36543 22935 ft 382 kts 161°
2026-05-05 03:42 46.07585 3.37873 22932 ft 382 kts 161°
2026-05-05 03:43 46.05101 3.39191 22937 ft 382 kts 161°
2026-05-05 03:43 46.02605 3.40513 22946 ft 381 kts 161°
2026-05-05 03:43 46.00116 3.41831 22941 ft 382 kts 161°
2026-05-05 03:43 45.97624 3.43149 22939 ft 382 kts 161°
2026-05-05 03:44 45.95156 3.44453 22949 ft 381 kts 161°
2026-05-05 03:44 45.92677 3.45762 22950 ft 381 kts 161°
2026-05-05 03:44 45.90176 3.47081 22946 ft 381 kts 161°
2026-05-05 03:44 45.87694 3.48389 22937 ft 381 kts 161°
2026-05-05 03:45 45.85180 3.49622 22944 ft 380 kts 164°
2026-05-05 03:45 45.82648 3.50702 22944 ft 380 kts 164°
2026-05-05 03:45 45.80121 3.51788 22945 ft 380 kts 164°
2026-05-05 03:45 45.77587 3.52880 22948 ft 380 kts 164°
2026-05-05 03:46 45.75062 3.53968 22939 ft 379 kts 164°
2026-05-05 03:46 45.72526 3.55061 22938 ft 379 kts 164°
2026-05-05 03:46 45.70037 3.56132 22946 ft 379 kts 164°
2026-05-05 03:46 45.67476 3.57232 22943 ft 378 kts 164°
2026-05-05 03:47 45.64999 3.58295 22947 ft 378 kts 164°
2026-05-05 03:47 45.62474 3.59378 22944 ft 378 kts 165°
2026-05-05 03:47 45.59956 3.60456 22946 ft 377 kts 164°
2026-05-05 03:47 45.57435 3.61535 22947 ft 377 kts 164°
2026-05-05 03:48 45.54916 3.62611 22945 ft 378 kts 165°
2026-05-05 03:48 45.52401 3.63685 22952 ft 377 kts 165°
2026-05-05 03:48 45.49892 3.64754 22950 ft 378 kts 165°
2026-05-05 03:48 45.47395 3.65818 22959 ft 378 kts 164°
2026-05-05 03:49 45.44878 3.66890 22960 ft 378 kts 164°
2026-05-05 03:49 45.42359 3.67962 22956 ft 378 kts 164°
2026-05-05 03:49 45.39846 3.69030 22955 ft 378 kts 164°
2026-05-05 03:49 45.37340 3.70095 22951 ft 378 kts 164°
2026-05-05 03:50 45.34817 3.71165 22960 ft 378 kts 164°
2026-05-05 03:50 45.32291 3.72236 22963 ft 378 kts 164°
2026-05-05 03:50 45.29783 3.73299 22956 ft 378 kts 164°
2026-05-05 03:50 45.27339 3.74702 22963 ft 380 kts 153°
2026-05-05 03:51 45.25199 3.76920 22960 ft 384 kts 139°
2026-05-05 03:51 45.23507 3.79817 22964 ft 389 kts 126°
2026-05-05 03:51 45.22049 3.83077 22959 ft 389 kts 126°
2026-05-05 03:51 45.20608 3.86282 22965 ft 389 kts 126°
2026-05-05 03:52 45.19146 3.89509 22970 ft 389 kts 126°
2026-05-05 03:52 45.17694 3.92700 22966 ft 389 kts 126°
2026-05-05 03:52 45.16207 3.95961 22965 ft 390 kts 126°
2026-05-05 03:52 45.14742 3.99168 22963 ft 390 kts 126°
2026-05-05 03:53 45.13268 4.02392 22969 ft 390 kts 126°
2026-05-05 03:53 45.11788 4.05623 22968 ft 390 kts 126°
2026-05-05 03:53 45.10305 4.08857 22967 ft 391 kts 126°
2026-05-05 03:53 45.08822 4.12090 22973 ft 391 kts 126°
2026-05-05 03:54 45.07347 4.15301 22974 ft 392 kts 126°
2026-05-05 03:54 45.05877 4.18499 22972 ft 392 kts 126°
2026-05-05 03:54 45.04368 4.21778 22972 ft 392 kts 126°
2026-05-05 03:54 45.02781 4.24834 22974 ft 390 kts 133°
2026-05-05 03:55 45.00937 4.27705 22974 ft 389 kts 135°
2026-05-05 03:55 44.99127 4.30469 22978 ft 389 kts 135°
2026-05-05 03:55 44.97288 4.33292 22976 ft 390 kts 135°
2026-05-05 03:55 44.95458 4.36105 22981 ft 390 kts 135°
2026-05-05 03:56 44.93620 4.38929 22979 ft 391 kts 135°
2026-05-05 03:56 44.91776 4.41759 22980 ft 391 kts 135°
2026-05-05 03:56 44.89938 4.44577 22981 ft 391 kts 135°
2026-05-05 03:56 44.88094 4.47400 22984 ft 392 kts 135°
2026-05-05 03:57 44.86266 4.50197 22981 ft 392 kts 135°
2026-05-05 03:57 44.84424 4.53013 22982 ft 393 kts 135°
2026-05-05 03:57 44.82560 4.55857 22986 ft 393 kts 135°
2026-05-05 03:57 44.80709 4.58680 22981 ft 394 kts 136°
2026-05-05 03:58 44.78845 4.61517 22983 ft 395 kts 136°
2026-05-05 03:58 44.76975 4.64363 22995 ft 396 kts 136°
2026-05-05 03:58 44.75103 4.67210 22989 ft 396 kts 136°
2026-05-05 03:58 44.73232 4.70052 22987 ft 396 kts 136°
2026-05-05 03:59 44.71368 4.72882 22984 ft 396 kts 136°
2026-05-05 03:59 44.69511 4.75697 23005 ft 396 kts 136°
2026-05-05 03:59 44.67620 4.78561 23000 ft 396 kts 136°
2026-05-05 03:59 44.65766 4.81366 23002 ft 396 kts 136°
2026-05-05 04:00 44.63891 4.84201 22980 ft 396 kts 136°
2026-05-05 04:00 44.62044 4.87067 22980 ft 396 kts 134°
2026-05-05 04:00 44.60229 4.89988 23002 ft 397 kts 134°
2026-05-05 04:00 44.58423 4.92913 22970 ft 397 kts 134°
2026-05-05 04:01 44.56612 4.95833 22987 ft 396 kts 134°
2026-05-05 04:01 44.54796 4.98745 22983 ft 397 kts 134°
2026-05-05 04:01 44.53001 5.01611 22966 ft 396 kts 134°
2026-05-05 04:01 44.51152 5.04555 22983 ft 396 kts 134°
2026-05-05 04:02 44.49344 5.07430 22975 ft 396 kts 134°
2026-05-05 04:02 44.47546 5.10285 22983 ft 395 kts 134°
2026-05-05 04:02 44.45718 5.13188 22973 ft 396 kts 134°
2026-05-05 04:02 44.43909 5.16058 22721 ft 392 kts 134°
2026-05-05 04:03 44.42120 5.18894 22148 ft 389 kts 134°
2026-05-05 04:03 44.40337 5.21717 21415 ft 385 kts 135°
2026-05-05 04:03 44.38569 5.24516 20677 ft 381 kts 135°
2026-05-05 04:03 44.36722 5.27119 20214 ft 371 kts 142°
2026-05-05 04:04 44.34820 5.29251 20140 ft 342 kts 145°
2026-05-05 04:04 44.33005 5.31227 20063 ft 317 kts 145°
2026-05-05 04:04 44.31339 5.33052 19987 ft 295 kts 146°
2026-05-05 04:04 44.29775 5.34757 19979 ft 299 kts 146°
2026-05-05 04:05 44.28091 5.36586 19984 ft 299 kts 146°
2026-05-05 04:05 44.26457 5.38360 19975 ft 299 kts 146°
2026-05-05 04:05 44.24835 5.40124 19977 ft 290 kts 146°
2026-05-05 04:05 44.23313 5.41787 19977 ft 270 kts 146°
2026-05-05 04:06 44.21825 5.43405 19974 ft 271 kts 146°
2026-05-05 04:06 44.20348 5.45004 19980 ft 273 kts 146°
2026-05-05 04:06 44.18850 5.46626 19982 ft 272 kts 146°
2026-05-05 04:06 44.17420 5.48175 19982 ft 270 kts 146°
2026-05-05 04:07 44.15928 5.49794 19982 ft 272 kts 146°
2026-05-05 04:07 44.14438 5.51407 19943 ft 271 kts 146°
2026-05-05 04:07 44.12956 5.53012 19652 ft 270 kts 146°
2026-05-05 04:07 44.11460 5.54629 18935 ft 278 kts 146°
2026-05-05 04:08 44.09911 5.56298 18141 ft 289 kts 146°
2026-05-05 04:08 44.08334 5.58009 17778 ft 269 kts 146°
2026-05-05 04:08 44.06951 5.59522 17302 ft 248 kts 147°
2026-05-05 04:08 44.05608 5.60978 16531 ft 243 kts 147°
2026-05-05 04:09 44.04285 5.62401 16144 ft 243 kts 147°
2026-05-05 04:09 44.02944 5.63838 16026 ft 244 kts 147°
2026-05-05 04:09 44.01594 5.65289 15987 ft 244 kts 147°
2026-05-05 04:09 44.00252 5.66733 15976 ft 244 kts 147°
2026-05-05 04:10 43.98909 5.68181 15978 ft 244 kts 147°
2026-05-05 04:10 43.97567 5.69624 15996 ft 245 kts 147°
2026-05-05 04:10 43.96220 5.71072 15997 ft 245 kts 147°
2026-05-05 04:10 43.94890 5.72505 15972 ft 232 kts 147°
2026-05-05 04:11 43.93684 5.73813 15980 ft 217 kts 147°
2026-05-05 04:11 43.92483 5.75100 15992 ft 220 kts 148°
2026-05-05 04:11 43.91274 5.76390 15993 ft 220 kts 148°
2026-05-05 04:11 43.90063 5.77684 15993 ft 219 kts 148°
2026-05-05 04:12 43.88863 5.78970 15922 ft 216 kts 148°
2026-05-05 04:12 43.87681 5.80238 15524 ft 215 kts 148°
2026-05-05 04:12 43.86500 5.81501 14970 ft 215 kts 148°
2026-05-05 04:12 43.85314 5.82767 14395 ft 215 kts 148°
2026-05-05 04:13 43.84133 5.84028 13828 ft 214 kts 148°
2026-05-05 04:13 43.82954 5.85287 13238 ft 213 kts 147°
2026-05-05 04:13 43.81799 5.86520 12678 ft 211 kts 147°
2026-05-05 04:13 43.80647 5.87750 12191 ft 206 kts 147°
2026-05-05 04:14 43.79500 5.88971 12015 ft 210 kts 147°
2026-05-05 04:14 43.78360 5.90183 11986 ft 209 kts 147°
2026-05-05 04:14 43.77207 5.91410 11989 ft 210 kts 147°
2026-05-05 04:14 43.76051 5.92641 11990 ft 212 kts 148°
2026-05-05 04:15 43.74801 5.93958 11981 ft 234 kts 147°
2026-05-05 04:15 43.73507 5.95332 11895 ft 231 kts 147°
2026-05-05 04:15 43.72267 5.96656 11455 ft 227 kts 147°
2026-05-05 04:15 43.71021 5.97984 10798 ft 226 kts 147°
2026-05-05 04:16 43.69775 5.99309 10088 ft 225 kts 147°
2026-05-05 04:16 43.68539 6.00622 9358 ft 223 kts 146°
2026-05-05 04:16 43.67316 6.01919 8645 ft 219 kts 146°
2026-05-05 04:16 43.66116 6.03193 7952 ft 217 kts 146°
2026-05-05 04:17 43.64924 6.04455 7276 ft 214 kts 146°
2026-05-05 04:17 43.63757 6.05691 6609 ft 211 kts 146°
2026-05-05 04:17 43.62603 6.06913 5916 ft 208 kts 146°
2026-05-05 04:17 43.61468 6.08107 5264 ft 204 kts 146°
2026-05-05 04:18 43.60365 6.09264 4651 ft 201 kts 143°
2026-05-05 04:18 43.59446 6.10693 4170 ft 196 kts 123°
2026-05-05 04:18 43.58924 6.12481 4170 ft 203 kts 112°
2026-05-05 04:18 43.58443 6.14322 4247 ft 205 kts 114°
2026-05-05 04:19 43.57934 6.16168 4290 ft 205 kts 114°
2026-05-05 04:19 43.57430 6.17968 4112 ft 201 kts 113°
2026-05-05 04:19 43.56927 6.19771 3999 ft 203 kts 113°
2026-05-05 04:19 43.56432 6.21566 3993 ft 199 kts 114°
2026-05-05 04:20 43.55921 6.23410 4002 ft 205 kts 113°
2026-05-05 04:20 43.55423 6.25214 3992 ft 204 kts 112°
2026-05-05 04:20 43.54923 6.27040 3998 ft 203 kts 113°
2026-05-05 04:20 43.54425 6.28854 4003 ft 205 kts 112°
2026-05-05 04:21 43.53919 6.30681 3993 ft 203 kts 112°
2026-05-05 04:21 43.53418 6.32495 3998 ft 202 kts 112°
2026-05-05 04:21 43.52915 6.34313 3999 ft 203 kts 113°
2026-05-05 04:21 43.52409 6.36138 3996 ft 203 kts 112°
2026-05-05 04:22 43.51905 6.37959 4001 ft 204 kts 112°
2026-05-05 04:22 43.51399 6.39787 3991 ft 203 kts 112°
2026-05-05 04:22 43.50893 6.41608 4000 ft 204 kts 112°
2026-05-05 04:22 43.50313 6.43369 4002 ft 204 kts 122°
2026-05-05 04:23 43.49424 6.44871 3999 ft 204 kts 135°
2026-05-05 04:23 43.48426 6.46265 3999 ft 204 kts 135°
2026-05-05 04:23 43.47443 6.47673 4005 ft 204 kts 134°
2026-05-05 04:23 43.46467 6.49081 4035 ft 204 kts 134°
2026-05-05 04:24 43.45491 6.50493 4078 ft 204 kts 134°
2026-05-05 04:24 43.44497 6.51929 4339 ft 211 kts 135°
2026-05-05 04:24 43.43501 6.53376 5104 ft 210 kts 135°
2026-05-05 04:25 43.41483 6.56302 5206 ft 207 kts 136°
2026-05-05 04:25 43.40488 6.57731 4603 ft 206 kts 135°
2026-05-05 04:25 43.39513 6.59128 4156 ft 200 kts 135°
2026-05-05 04:25 43.38636 6.60672 4062 ft 208 kts 118°
2026-05-05 04:26 43.38351 6.62603 4072 ft 208 kts 94°
2026-05-05 04:26 43.38295 6.64600 4054 ft 208 kts 95°
2026-05-05 04:26 43.38226 6.66492 4014 ft 195 kts 95°
2026-05-05 04:26 43.38151 6.68358 3994 ft 193 kts 95°
2026-05-05 04:27 43.38150 6.70197 3994 ft 196 kts 81°
2026-05-05 04:27 43.38661 6.71922 3998 ft 196 kts 66°
2026-05-05 04:27 43.39278 6.73559 3989 ft 188 kts 64°
2026-05-05 04:27 43.39885 6.75159 3997 ft 189 kts 65°
2026-05-05 04:28 43.40476 6.76765 3990 ft 190 kts 66°
2026-05-05 04:28 43.41053 6.78385 3994 ft 187 kts 66°
2026-05-05 04:28 43.41621 6.80002 3987 ft 187 kts 67°
2026-05-05 04:28 43.42185 6.81623 3989 ft 188 kts 67°
2026-05-05 04:29 43.42742 6.83226 3995 ft 188 kts 67°
2026-05-05 04:29 43.43306 6.84850 4007 ft 187 kts 67°
2026-05-05 04:29 43.43870 6.86468 4006 ft 187 kts 67°
2026-05-05 04:29 43.44432 6.88089 3990 ft 186 kts 67°
2026-05-05 04:30 43.44981 6.89668 3993 ft 188 kts 67°
2026-05-05 04:30 43.45544 6.91287 4006 ft 188 kts 67°
2026-05-05 04:30 43.46107 6.92911 4003 ft 188 kts 67°
2026-05-05 04:30 43.46686 6.94503 4006 ft 188 kts 63°
2026-05-05 04:31 43.47423 6.95945 4007 ft 189 kts 53°
2026-05-05 04:31 43.48328 6.97307 4001 ft 190 kts 49°
2026-05-05 04:31 43.49244 6.98574 4003 ft 191 kts 47°
2026-05-05 04:31 43.50179 6.99858 3977 ft 189 kts 47°
2026-05-05 04:32 43.51109 7.01135 3849 ft 188 kts 47°
2026-05-05 04:32 43.52032 7.02400 3592 ft 185 kts 47°
2026-05-05 04:32 43.52942 7.03647 3351 ft 183 kts 47°
2026-05-05 04:32 43.53844 7.04885 3100 ft 182 kts 47°
2026-05-05 04:33 43.54736 7.06110 2856 ft 179 kts 47°
2026-05-05 04:33 43.55607 7.07304 2622 ft 177 kts 47°
2026-05-05 04:33 43.56489 7.08512 2376 ft 176 kts 47°
2026-05-05 04:33 43.57355 7.09700 2142 ft 174 kts 47°
2026-05-05 04:34 43.58205 7.10863 1908 ft 174 kts 46°
2026-05-05 04:34 43.59056 7.12030 1675 ft 175 kts 46°
2026-05-05 04:34 43.59929 7.13227 1695 ft 181 kts 46°
2026-05-05 04:34 43.60798 7.14401 1805 ft 165 kts 45°
2026-05-05 04:35 43.61602 7.15423 1608 ft 148 kts 44°
2026-05-05 04:35 43.62333 7.16392 1360 ft 151 kts 46°
2026-05-05 04:35 43.63163 7.17516 1004 ft 180 kts 44°
2026-05-05 04:35 43.64013 7.18771 565 ft 175 kts 46°
2026-05-05 04:36 43.64837 7.19918 226 ft 168 kts 44°
2026-05-05 04:36 43.65627 7.21008 26 ft 146 kts 41°
2026-05-05 04:36 43.65999 7.21518 18 ft 32 kts 47°
2026-05-05 04:36 43.66138 7.21719 19 ft 2 kts 43°
2026-05-05 04:37 43.66153 7.21737 20 ft 5 kts 39°
2026-05-05 04:37 43.66173 7.21752 20 ft 5 kts 23°
2026-05-05 04:37 43.66211 7.21749 19 ft 0 kts 340°
2026-05-05 04:37 43.66243 7.21719 17 ft 10 kts 315°
2026-05-05 04:38 43.66294 7.21648 17 ft 8 kts 314°
2026-05-05 04:38 43.66347 7.21573 18 ft 12 kts 315°
2026-05-05 04:38 43.66372 7.21491 18 ft 6 kts 261°
2026-05-05 04:38 43.66367 7.21452 18 ft 6 kts 260°
2026-05-05 04:39 43.66356 7.21359 18 ft 12 kts 274°
2026-05-05 04:39 43.66378 7.21303 19 ft 2 kts 316°
2026-05-05 04:39 43.66404 7.21293 19 ft 2 kts 353°
2026-05-05 04:39 43.66406 7.21293 19 ft 1 kts 355°
2026-05-05 04:40 43.66410 7.21293 19 ft 0 kts 357°